This is the latest recevied weather packets stored in our database for station/object K6POO-1. If no packets are shown the sender has not sent any weather packets the latest 10 day(s).
| Time | Temp. | Humidity | Pressure | Rain* | Wind** | Luminosity | Snow |
|---|---|---|---|---|---|---|---|
| 1777774494 | 12.78° C | 82% | 1011.4 hPa | 0 mm | - | 44 W/m² | - |
| 1777774191 | 12.78° C | 82% | 1012 hPa | 0 mm | - | 44 W/m² | - |
| 1777773889 | 12.78° C | 81% | 1011.8 hPa | 0 mm | - | 44 W/m² | - |
| 1777773585 | 12.78° C | 81% | 1011.7 hPa | 0 mm | - | 53 W/m² | - |
| 1777773282 | 12.78° C | 80% | 1011.9 hPa | 0 mm | - | 61 W/m² | - |
| 1777772978 | 12.78° C | 80% | 1012 hPa | 0 mm | - | 75 W/m² | - |
| 1777772675 | 13.33° C | 79% | 1012 hPa | 0 mm | - | 84 W/m² | - |
| 1777772373 | 13.33° C | 79% | 1012 hPa | 0 mm | - | 92 W/m² | - |
| 1777772070 | 13.33° C | 79% | 1012.1 hPa | 0 mm | - | 100 W/m² | - |
| 1777771767 | 13.33° C | 79% | 1011.8 hPa | 0 mm | - | 111 W/m² | - |
| 1777771466 | 13.33° C | 79% | 1012.1 hPa | 0 mm | - | 107 W/m² | - |
| 1777771161 | 13.33° C | 78% | 1012.3 hPa | 0 mm | - | 115 W/m² | - |
| 1777770858 | 13.33° C | 78% | 1012.1 hPa | 0 mm | - | 134 W/m² | - |
| 1777770555 | 13.89° C | 77% | 1012.2 hPa | 0 mm | - | 129 W/m² | - |
| 1777770252 | 13.89° C | 76% | 1012.3 hPa | 0 mm | - | 139 W/m² | - |
| 1777769949 | 13.89° C | 76% | 1012 hPa | 0 mm | - | 146 W/m² | - |
| 1777769646 | 13.89° C | 75% | 1012.4 hPa | 0 mm | - | 173 W/m² | - |
| 1777769342 | 13.89° C | 77% | 1012.2 hPa | 0 mm | - | 185 W/m² | - |
| 1777769039 | 13.89° C | 77% | 1012.1 hPa | 0 mm | - | 174 W/m² | - |
| 1777768737 | 13.89° C | 77% | 1012.3 hPa | 0 mm | - | 175 W/m² | - |
| 1777768434 | 13.89° C | 77% | 1012.4 hPa | 0 mm | - | 197 W/m² | - |
| 1777768130 | 13.89° C | 77% | 1012.4 hPa | 0 mm | - | 185 W/m² | - |
| 1777767828 | 13.89° C | 77% | 1012.3 hPa | 0 mm | - | 226 W/m² | - |
| 1777767525 | 13.89° C | 77% | 1012.3 hPa | 0 mm | - | 187 W/m² | - |
| 1777767221 | 13.89° C | 77% | 1012.4 hPa | 0 mm | - | 213 W/m² | - |
* Rain latest hour (hover to see other rain measurements)
** Current wind speed in m/s (hover to see current wind gust speed)